Year,Month,Day,Hour,Minute,Value (Times are PST for temperature in C)
2015,08,05,00,00,19.10
2015,08,05,00,01,19.10
2015,08,05,00,02,19.10
2015,08,05,00,03,19.10
2015,08,05,00,04,19.10
2015,08,05,00,05,19.20
2015,08,05,00,06,19.20
2015,08,05,00,07,19.20
2015,08,05,00,08,19.20
2015,08,05,00,09,19.20
2015,08,05,00,10,19.20
2015,08,05,00,11,19.20
2015,08,05,00,12,19.20
2015,08,05,00,13,19.20
2015,08,05,00,14,19.20
2015,08,05,00,15,19.20
2015,08,05,00,16,19.20
2015,08,05,00,17,19.30
2015,08,05,00,18,19.30
2015,08,05,00,19,19.30
2015,08,05,00,20,19.20
2015,08,05,00,21,19.20
2015,08,05,00,22,19.20
2015,08,05,00,23,19.20
2015,08,05,00,24,19.20
2015,08,05,00,25,19.10
2015,08,05,00,26,19.10
2015,08,05,00,27,19.10
2015,08,05,00,28,19.10
2015,08,05,00,29,19.00
2015,08,05,00,30,19.00
2015,08,05,00,31,18.90
2015,08,05,00,32,18.90
2015,08,05,00,33,18.90
2015,08,05,00,34,18.90
2015,08,05,00,35,18.90
2015,08,05,00,36,18.80
2015,08,05,00,37,18.80
2015,08,05,00,38,18.80
2015,08,05,00,39,18.80
2015,08,05,00,40,18.80
2015,08,05,00,41,18.80
2015,08,05,00,42,18.80
2015,08,05,00,43,18.80
2015,08,05,00,44,18.70
2015,08,05,00,45,18.70
2015,08,05,00,46,18.70
2015,08,05,00,47,18.70
2015,08,05,00,48,18.70
2015,08,05,00,49,18.60
2015,08,05,00,50,18.60
2015,08,05,00,51,18.60
2015,08,05,00,52,18.60
2015,08,05,00,53,18.60
2015,08,05,00,54,18.60
2015,08,05,00,55,18.50
2015,08,05,00,56,18.50
2015,08,05,00,57,18.50
2015,08,05,00,58,18.50
2015,08,05,00,59,18.40
2015,08,05,01,00,18.40
2015,08,05,01,01,18.40
2015,08,05,01,02,18.40
2015,08,05,01,03,18.40
2015,08,05,01,04,18.40
2015,08,05,01,05,18.40
2015,08,05,01,06,18.40
2015,08,05,01,07,18.40
2015,08,05,01,08,18.40
2015,08,05,01,09,18.40
2015,08,05,01,10,18.40
2015,08,05,01,11,18.40
2015,08,05,01,12,18.40
2015,08,05,01,13,18.40
2015,08,05,01,14,18.40
2015,08,05,01,15,18.40
2015,08,05,01,16,18.30
2015,08,05,01,17,18.30
2015,08,05,01,18,18.30
2015,08,05,01,19,18.30
2015,08,05,01,20,18.30
2015,08,05,01,21,18.30
2015,08,05,01,22,18.20
2015,08,05,01,23,18.20
2015,08,05,01,24,18.20
2015,08,05,01,25,18.20
2015,08,05,01,26,18.20
2015,08,05,01,27,18.20
2015,08,05,01,28,18.20
2015,08,05,01,29,18.10
2015,08,05,01,30,18.10
2015,08,05,01,31,18.10
2015,08,05,01,32,18.10
2015,08,05,01,33,18.10
2015,08,05,01,34,18.10
2015,08,05,01,35,18.10
2015,08,05,01,36,18.10
2015,08,05,01,37,18.00
2015,08,05,01,38,18.00
2015,08,05,01,39,18.00
2015,08,05,01,40,18.00
2015,08,05,01,41,18.00
2015,08,05,01,42,18.00
2015,08,05,01,43,17.90
2015,08,05,01,44,17.90
2015,08,05,01,45,17.90
2015,08,05,01,46,17.90
2015,08,05,01,47,17.90
2015,08,05,01,48,17.90
2015,08,05,01,49,17.90
2015,08,05,01,50,17.90
2015,08,05,01,51,17.90
2015,08,05,01,52,17.90
2015,08,05,01,53,17.90
2015,08,05,01,54,17.90
2015,08,05,01,55,17.90
2015,08,05,01,56,17.90
2015,08,05,01,57,17.90
2015,08,05,01,58,17.80
2015,08,05,01,59,17.80
2015,08,05,02,00,17.80
2015,08,05,02,01,17.80
2015,08,05,02,02,17.80
2015,08,05,02,03,17.80
2015,08,05,02,04,17.80
2015,08,05,02,05,17.80
2015,08,05,02,06,17.80
2015,08,05,02,07,17.80
2015,08,05,02,08,17.80
2015,08,05,02,09,17.80
2015,08,05,02,10,17.80
2015,08,05,02,11,17.80
2015,08,05,02,12,17.80
2015,08,05,02,13,17.80
2015,08,05,02,14,17.80
2015,08,05,02,15,17.80
2015,08,05,02,16,17.80
2015,08,05,02,17,17.80
2015,08,05,02,18,17.80
2015,08,05,02,19,17.80
2015,08,05,02,20,17.80
2015,08,05,02,21,17.80
2015,08,05,02,22,17.80
2015,08,05,02,23,17.80
2015,08,05,02,24,17.80
2015,08,05,02,25,17.80
2015,08,05,02,26,17.80
2015,08,05,02,27,17.80
2015,08,05,02,28,17.80
2015,08,05,02,29,17.80
2015,08,05,02,30,17.80
2015,08,05,02,31,17.70
2015,08,05,02,32,17.70
2015,08,05,02,33,17.70
2015,08,05,02,34,17.70
2015,08,05,02,35,17.70
2015,08,05,02,36,17.70
2015,08,05,02,37,17.70
2015,08,05,02,38,17.70
2015,08,05,02,39,17.70
2015,08,05,02,40,17.70
2015,08,05,02,41,17.70
2015,08,05,02,42,17.60
2015,08,05,02,43,17.60
2015,08,05,02,44,17.60
2015,08,05,02,45,17.60
2015,08,05,02,46,17.60
2015,08,05,02,47,17.60
2015,08,05,02,48,17.60
2015,08,05,02,49,17.60
2015,08,05,02,50,17.60
2015,08,05,02,51,17.60
2015,08,05,02,52,17.60
2015,08,05,02,53,17.60
2015,08,05,02,54,17.60
2015,08,05,02,55,17.60
2015,08,05,02,56,17.60
2015,08,05,02,57,17.60
2015,08,05,02,58,17.60
2015,08,05,02,59,17.60
2015,08,05,03,00,17.60
2015,08,05,03,01,17.60
2015,08,05,03,02,17.60
2015,08,05,03,03,17.60
2015,08,05,03,04,17.60
2015,08,05,03,05,17.60
2015,08,05,03,06,17.60
2015,08,05,03,07,17.60
2015,08,05,03,08,17.50
2015,08,05,03,09,17.50
2015,08,05,03,10,17.50
2015,08,05,03,11,17.50
2015,08,05,03,12,17.50
2015,08,05,03,13,17.50
2015,08,05,03,14,17.40
2015,08,05,03,15,17.40
2015,08,05,03,16,17.40
2015,08,05,03,17,17.40
2015,08,05,03,18,17.40
2015,08,05,03,19,17.40
2015,08,05,03,20,17.40
2015,08,05,03,21,17.40
2015,08,05,03,22,17.40
2015,08,05,03,23,17.40
2015,08,05,03,24,17.40
2015,08,05,03,25,17.40
2015,08,05,03,26,17.40
2015,08,05,03,27,17.40
2015,08,05,03,28,17.40
2015,08,05,03,29,17.40
2015,08,05,03,30,17.40
2015,08,05,03,31,17.40
2015,08,05,03,32,17.40
2015,08,05,03,33,17.40
2015,08,05,03,34,17.40
2015,08,05,03,35,17.30
2015,08,05,03,36,17.30
2015,08,05,03,37,17.30
2015,08,05,03,38,17.30
2015,08,05,03,39,17.40
2015,08,05,03,40,17.40
2015,08,05,03,41,17.30
2015,08,05,03,42,17.30
2015,08,05,03,43,17.30
2015,08,05,03,44,17.30
2015,08,05,03,45,17.30
2015,08,05,03,46,17.30
2015,08,05,03,47,17.30
2015,08,05,03,48,17.30
2015,08,05,03,49,17.30
2015,08,05,03,50,17.30
2015,08,05,03,51,17.30
2015,08,05,03,52,17.30
2015,08,05,03,53,17.30
2015,08,05,03,54,17.30
2015,08,05,03,55,17.30
2015,08,05,03,56,17.30
2015,08,05,03,57,17.30
2015,08,05,03,58,17.30
2015,08,05,03,59,17.30
2015,08,05,04,00,17.30
2015,08,05,04,01,17.30
2015,08,05,04,02,17.30
2015,08,05,04,03,17.30
2015,08,05,04,04,17.30
2015,08,05,04,05,17.30
2015,08,05,04,06,17.30
2015,08,05,04,07,17.30
2015,08,05,04,08,17.30
2015,08,05,04,09,17.30
2015,08,05,04,10,17.30
2015,08,05,04,11,17.30
2015,08,05,04,12,17.30
2015,08,05,04,13,17.30
2015,08,05,04,14,17.30
2015,08,05,04,15,17.30
2015,08,05,04,16,17.30
2015,08,05,04,17,17.30
2015,08,05,04,18,17.30
2015,08,05,04,19,17.30
2015,08,05,04,20,17.30
2015,08,05,04,21,17.30
2015,08,05,04,22,17.30
2015,08,05,04,23,17.30
2015,08,05,04,24,17.30
2015,08,05,04,25,17.30
2015,08,05,04,26,17.30
2015,08,05,04,27,17.20
2015,08,05,04,28,17.20
2015,08,05,04,29,17.20
2015,08,05,04,30,17.20
2015,08,05,04,31,17.20
2015,08,05,04,32,17.20
2015,08,05,04,33,17.20
2015,08,05,04,34,17.20
2015,08,05,04,35,17.20
2015,08,05,04,36,17.20
2015,08,05,04,37,17.20
2015,08,05,04,38,17.20
2015,08,05,04,39,17.20
2015,08,05,04,40,17.20
2015,08,05,04,41,17.20
2015,08,05,04,42,17.20
2015,08,05,04,43,17.20
2015,08,05,04,44,17.20
2015,08,05,04,45,17.20
2015,08,05,04,46,17.20
2015,08,05,04,47,17.20
2015,08,05,04,48,17.20
2015,08,05,04,49,17.20
2015,08,05,04,50,17.20
2015,08,05,04,51,17.20
2015,08,05,04,52,17.20
2015,08,05,04,53,17.20
2015,08,05,04,54,17.20
2015,08,05,04,55,17.20
2015,08,05,04,56,17.20
2015,08,05,04,57,17.10
2015,08,05,04,58,17.10
2015,08,05,04,59,17.10
2015,08,05,05,00,17.10
2015,08,05,05,01,17.10
2015,08,05,05,02,17.10
2015,08,05,05,03,17.10
2015,08,05,05,04,17.10
2015,08,05,05,05,17.10
2015,08,05,05,06,17.10
2015,08,05,05,07,17.10
2015,08,05,05,08,17.10
2015,08,05,05,09,17.10
2015,08,05,05,10,17.10
2015,08,05,05,11,17.10
2015,08,05,05,12,17.10
2015,08,05,05,13,17.10
2015,08,05,05,14,17.10
2015,08,05,05,15,17.10
2015,08,05,05,16,17.10
2015,08,05,05,17,17.10
2015,08,05,05,18,17.10
2015,08,05,05,19,17.10
2015,08,05,05,20,17.10
2015,08,05,05,21,17.10
2015,08,05,05,22,17.10
2015,08,05,05,23,17.10
2015,08,05,05,24,17.10
2015,08,05,05,25,17.10
2015,08,05,05,26,17.10
2015,08,05,05,27,17.10
2015,08,05,05,28,17.10
2015,08,05,05,29,17.10
2015,08,05,05,30,17.10
2015,08,05,05,31,17.10
2015,08,05,05,32,17.00
2015,08,05,05,33,17.00
2015,08,05,05,34,17.00
2015,08,05,05,35,17.00
2015,08,05,05,36,17.00
2015,08,05,05,37,17.00
2015,08,05,05,38,17.00
2015,08,05,05,39,17.00
2015,08,05,05,40,17.00
2015,08,05,05,41,17.00
2015,08,05,05,42,17.00
2015,08,05,05,43,17.00
2015,08,05,05,44,17.00
2015,08,05,05,45,17.00
2015,08,05,05,46,17.00
2015,08,05,05,47,17.00
2015,08,05,05,48,17.00
2015,08,05,05,49,17.00
2015,08,05,05,50,17.00
2015,08,05,05,51,17.00
2015,08,05,05,52,17.00
2015,08,05,05,53,17.00
2015,08,05,05,54,17.00
2015,08,05,05,55,17.00
2015,08,05,05,56,17.00
2015,08,05,05,57,17.00
2015,08,05,05,58,17.00
2015,08,05,05,59,17.00
2015,08,05,06,00,17.00
2015,08,05,06,01,16.90
2015,08,05,06,02,16.90
2015,08,05,06,03,16.90
2015,08,05,06,04,16.90
2015,08,05,06,05,16.90
2015,08,05,06,06,16.90
2015,08,05,06,07,16.90
2015,08,05,06,08,16.90
2015,08,05,06,09,17.00
2015,08,05,06,10,17.00
2015,08,05,06,11,17.00
2015,08,05,06,12,17.00
2015,08,05,06,13,17.00
2015,08,05,06,14,17.00
2015,08,05,06,15,17.00
2015,08,05,06,16,17.00
2015,08,05,06,17,17.00
2015,08,05,06,18,17.00
2015,08,05,06,19,17.00
2015,08,05,06,20,17.00
2015,08,05,06,21,17.00
2015,08,05,06,22,16.90
2015,08,05,06,23,17.00
2015,08,05,06,24,16.90
2015,08,05,06,25,16.90
2015,08,05,06,26,16.90
2015,08,05,06,27,16.90
2015,08,05,06,28,16.90
2015,08,05,06,29,16.90
2015,08,05,06,30,16.90
2015,08,05,06,31,16.90
2015,08,05,06,32,16.90
2015,08,05,06,33,16.90
2015,08,05,06,34,16.90
2015,08,05,06,35,16.90
2015,08,05,06,36,16.90
2015,08,05,06,37,16.90
2015,08,05,06,38,16.90
2015,08,05,06,39,16.90
2015,08,05,06,40,16.90
2015,08,05,06,41,16.90
2015,08,05,06,42,16.90
2015,08,05,06,43,16.90
2015,08,05,06,44,16.90
2015,08,05,06,45,16.90
2015,08,05,06,46,16.90
2015,08,05,06,47,16.90
2015,08,05,06,48,16.90
2015,08,05,06,49,16.90
2015,08,05,06,50,16.90
2015,08,05,06,51,16.90
2015,08,05,06,52,16.90
2015,08,05,06,53,16.90
2015,08,05,06,54,16.90
2015,08,05,06,55,16.90
2015,08,05,06,56,16.90
2015,08,05,06,57,16.90
2015,08,05,06,58,16.90
2015,08,05,06,59,16.90
2015,08,05,07,00,16.90
2015,08,05,07,01,16.90
2015,08,05,07,02,16.90
2015,08,05,07,03,16.90
2015,08,05,07,04,16.90
2015,08,05,07,05,16.90
2015,08,05,07,06,16.90
2015,08,05,07,07,16.90
2015,08,05,07,08,16.90
2015,08,05,07,09,16.90
2015,08,05,07,10,16.90
2015,08,05,07,11,16.90
2015,08,05,07,12,16.90
2015,08,05,07,13,16.90
2015,08,05,07,14,16.90
2015,08,05,07,15,16.90
2015,08,05,07,16,16.90
2015,08,05,07,17,16.90
2015,08,05,07,18,16.90
2015,08,05,07,19,16.90
2015,08,05,07,20,16.90
2015,08,05,07,21,16.90
2015,08,05,07,22,16.90
2015,08,05,07,23,16.90
2015,08,05,07,24,16.90
2015,08,05,07,25,16.90
2015,08,05,07,26,16.90
2015,08,05,07,27,16.90
2015,08,05,07,28,16.90
2015,08,05,07,29,16.90
2015,08,05,07,30,16.90
2015,08,05,07,31,16.90
2015,08,05,07,32,17.00
2015,08,05,07,33,17.00
2015,08,05,07,34,17.00
2015,08,05,07,35,17.00
2015,08,05,07,36,17.00
2015,08,05,07,37,17.00
2015,08,05,07,38,17.10
2015,08,05,07,39,17.10
2015,08,05,07,40,17.10
2015,08,05,07,41,17.10
2015,08,05,07,42,17.10
2015,08,05,07,43,17.10
2015,08,05,07,44,17.10
2015,08,05,07,45,17.10
2015,08,05,07,46,17.00
2015,08,05,07,47,17.00
2015,08,05,07,48,17.00
2015,08,05,07,49,17.00
2015,08,05,07,50,17.00
2015,08,05,07,51,16.90
2015,08,05,07,52,16.90
2015,08,05,07,53,16.90
2015,08,05,07,54,16.90
2015,08,05,07,55,16.80
2015,08,05,07,56,16.80
2015,08,05,07,57,16.80
2015,08,05,07,58,16.80
2015,08,05,07,59,16.80
2015,08,05,08,00,16.80
2015,08,05,08,01,16.80
2015,08,05,08,02,16.80
2015,08,05,08,03,16.80
2015,08,05,08,04,16.80
2015,08,05,08,05,16.80
2015,08,05,08,06,16.80
2015,08,05,08,07,16.80
2015,08,05,08,08,16.80
2015,08,05,08,09,16.80
2015,08,05,08,10,16.80
2015,08,05,08,11,16.80
2015,08,05,08,12,16.80
2015,08,05,08,13,16.80
2015,08,05,08,14,16.80
2015,08,05,08,15,16.80
2015,08,05,08,16,16.80
2015,08,05,08,17,16.80
2015,08,05,08,18,16.80
2015,08,05,08,19,16.70
2015,08,05,08,20,16.70
2015,08,05,08,21,16.70
2015,08,05,08,22,16.70
2015,08,05,08,23,16.70
2015,08,05,08,24,16.70
2015,08,05,08,25,16.70
2015,08,05,08,26,16.70
2015,08,05,08,27,16.70
2015,08,05,08,28,16.70
2015,08,05,08,29,16.70
2015,08,05,08,30,16.70
2015,08,05,08,31,16.70
2015,08,05,08,32,16.70
2015,08,05,08,33,16.70
2015,08,05,08,34,16.70
2015,08,05,08,35,16.70
2015,08,05,08,36,16.70
2015,08,05,08,37,16.70
2015,08,05,08,38,16.70
2015,08,05,08,39,16.70
2015,08,05,08,40,16.70
2015,08,05,08,41,16.70
2015,08,05,08,42,16.70
2015,08,05,08,43,16.70
2015,08,05,08,44,16.70
2015,08,05,08,45,16.70
2015,08,05,08,46,16.70
2015,08,05,08,47,16.60
2015,08,05,08,48,16.60
2015,08,05,08,49,16.60
2015,08,05,08,50,16.60
2015,08,05,08,51,16.50
2015,08,05,08,52,16.50
2015,08,05,08,53,16.50
2015,08,05,08,54,16.40
2015,08,05,08,55,16.40
2015,08,05,08,56,16.40
2015,08,05,08,57,16.40
2015,08,05,08,58,16.40
2015,08,05,08,59,16.40
2015,08,05,09,00,16.40
2015,08,05,09,01,16.40
2015,08,05,09,02,16.40
2015,08,05,09,03,16.40
2015,08,05,09,04,16.40
2015,08,05,09,05,16.40
2015,08,05,09,06,16.40
2015,08,05,09,07,16.40
2015,08,05,09,08,16.40
2015,08,05,09,09,16.40
2015,08,05,09,10,16.40
2015,08,05,09,11,16.40
2015,08,05,09,12,16.40
2015,08,05,09,13,16.40
2015,08,05,09,14,16.40
2015,08,05,09,15,16.40
2015,08,05,09,16,16.50
2015,08,05,09,17,16.50
2015,08,05,09,18,16.50
2015,08,05,09,19,16.50
2015,08,05,09,20,16.50
2015,08,05,09,21,16.50
2015,08,05,09,22,16.50
2015,08,05,09,23,16.40
2015,08,05,09,24,16.40
2015,08,05,09,25,16.40
2015,08,05,09,26,16.40
2015,08,05,09,27,16.40
2015,08,05,09,28,16.40
2015,08,05,09,29,16.40
2015,08,05,09,30,16.40
2015,08,05,09,31,16.40
2015,08,05,09,32,16.40
2015,08,05,09,33,16.40
2015,08,05,09,34,16.40
2015,08,05,09,35,16.40
2015,08,05,09,36,16.40
2015,08,05,09,37,16.40
2015,08,05,09,38,16.40
2015,08,05,09,39,16.50
2015,08,05,09,40,16.50
2015,08,05,09,41,16.40
2015,08,05,09,42,16.40
2015,08,05,09,43,16.40
2015,08,05,09,44,16.40
2015,08,05,09,45,16.40
2015,08,05,09,46,16.40
2015,08,05,09,47,16.50
2015,08,05,09,48,16.50
2015,08,05,09,49,16.50
2015,08,05,09,50,16.50
2015,08,05,09,51,16.60
2015,08,05,09,52,16.60
2015,08,05,09,53,16.60
2015,08,05,09,54,16.60
2015,08,05,09,55,16.60
2015,08,05,09,56,16.60
2015,08,05,09,57,16.70
2015,08,05,09,58,16.70
2015,08,05,09,59,16.70
2015,08,05,10,00,16.70
2015,08,05,10,01,16.70
2015,08,05,10,02,16.70
2015,08,05,10,03,16.70
2015,08,05,10,04,16.70
2015,08,05,10,05,16.70
2015,08,05,10,06,16.70
2015,08,05,10,07,16.70
2015,08,05,10,08,16.70
2015,08,05,10,09,16.70
2015,08,05,10,10,16.70
2015,08,05,10,11,16.70
2015,08,05,10,12,16.70
2015,08,05,10,13,16.70
2015,08,05,10,14,16.70
2015,08,05,10,15,16.70
2015,08,05,10,16,16.70
2015,08,05,10,17,16.70
2015,08,05,10,18,16.70
2015,08,05,10,19,16.70
2015,08,05,10,20,16.80
2015,08,05,10,21,16.80
2015,08,05,10,22,16.80
2015,08,05,10,23,16.80
2015,08,05,10,24,16.80
2015,08,05,10,25,16.80
2015,08,05,10,26,16.90
2015,08,05,10,27,16.90
2015,08,05,10,28,16.90
2015,08,05,10,29,16.90
2015,08,05,10,30,16.90
2015,08,05,10,31,16.90
2015,08,05,10,32,16.90
2015,08,05,10,33,16.90
2015,08,05,10,34,16.90
2015,08,05,10,35,16.90
2015,08,05,10,36,16.80
2015,08,05,10,37,16.80
2015,08,05,10,38,16.80
2015,08,05,10,39,16.80
2015,08,05,10,40,16.80
2015,08,05,10,41,16.70
2015,08,05,10,42,16.70
2015,08,05,10,43,16.70
2015,08,05,10,44,16.70
2015,08,05,10,45,16.70
2015,08,05,10,46,16.70
2015,08,05,10,47,16.80
2015,08,05,10,48,16.80
2015,08,05,10,49,16.80
2015,08,05,10,50,16.90
2015,08,05,10,51,16.90
2015,08,05,10,52,16.90
2015,08,05,10,53,16.80
2015,08,05,10,54,16.80
2015,08,05,10,55,16.80
2015,08,05,10,56,16.90
2015,08,05,10,57,16.90
2015,08,05,10,58,17.00
2015,08,05,10,59,17.00
2015,08,05,11,00,17.00
2015,08,05,11,01,17.00
2015,08,05,11,02,17.10
2015,08,05,11,03,17.10
2015,08,05,11,04,17.10
2015,08,05,11,05,17.10
2015,08,05,11,06,17.10
2015,08,05,11,07,17.10
2015,08,05,11,08,17.10
2015,08,05,11,09,17.10
2015,08,05,11,10,17.10
2015,08,05,11,11,17.10
2015,08,05,11,12,17.10
2015,08,05,11,13,17.10
2015,08,05,11,14,17.10
2015,08,05,11,15,17.10
2015,08,05,11,16,17.10
2015,08,05,11,17,17.10
2015,08,05,11,18,17.10
2015,08,05,11,19,17.10
2015,08,05,11,20,17.10
2015,08,05,11,21,17.10
2015,08,05,11,22,17.10
2015,08,05,11,23,17.10
2015,08,05,11,24,17.10
2015,08,05,11,25,17.10
2015,08,05,11,26,17.10
2015,08,05,11,27,17.10
2015,08,05,11,28,17.10
2015,08,05,11,29,17.10
2015,08,05,11,30,17.10
2015,08,05,11,31,17.00
2015,08,05,11,32,17.00
2015,08,05,11,33,17.00
2015,08,05,11,34,16.90
2015,08,05,11,35,16.90
2015,08,05,11,36,16.80
2015,08,05,11,37,16.80
2015,08,05,11,38,16.80
2015,08,05,11,39,16.80
2015,08,05,11,40,16.80
2015,08,05,11,41,16.80
2015,08,05,11,42,16.80
2015,08,05,11,43,16.80
2015,08,05,11,44,16.70
2015,08,05,11,45,16.70
2015,08,05,11,46,16.70
2015,08,05,11,47,16.70
2015,08,05,11,48,16.70
2015,08,05,11,49,16.70
2015,08,05,11,50,16.70
2015,08,05,11,51,16.70
2015,08,05,11,52,16.70
2015,08,05,11,53,16.70
2015,08,05,11,54,16.70
2015,08,05,11,55,16.70
2015,08,05,11,56,16.80
2015,08,05,11,57,16.80
2015,08,05,11,58,16.80
2015,08,05,11,59,16.70
2015,08,05,12,00,16.70
2015,08,05,12,01,16.70
2015,08,05,12,02,16.70
2015,08,05,12,03,16.70
2015,08,05,12,04,16.60
2015,08,05,12,05,16.60
2015,08,05,12,06,16.60
2015,08,05,12,07,16.50
2015,08,05,12,08,16.50
2015,08,05,12,09,16.50
2015,08,05,12,10,16.50
2015,08,05,12,11,16.40
2015,08,05,12,12,16.40
2015,08,05,12,13,16.50
2015,08,05,12,14,16.50
2015,08,05,12,15,16.50
2015,08,05,12,16,16.60
2015,08,05,12,17,16.50
2015,08,05,12,18,16.50
2015,08,05,12,19,16.50
2015,08,05,12,20,16.50
2015,08,05,12,21,16.50
2015,08,05,12,22,16.40
2015,08,05,12,23,16.50
2015,08,05,12,24,16.50
2015,08,05,12,25,16.40
2015,08,05,12,26,16.40
2015,08,05,12,27,16.40
2015,08,05,12,28,16.50
2015,08,05,12,29,16.50
2015,08,05,12,30,16.60
2015,08,05,12,31,16.60
2015,08,05,12,32,16.60
2015,08,05,12,33,16.50
2015,08,05,12,34,16.50
2015,08,05,12,35,16.50
2015,08,05,12,36,16.50
2015,08,05,12,37,16.60
2015,08,05,12,38,16.60
2015,08,05,12,39,16.60
2015,08,05,12,40,16.60
2015,08,05,12,41,16.60
2015,08,05,12,42,16.60
2015,08,05,12,43,16.60
2015,08,05,12,44,16.60
2015,08,05,12,45,16.60
2015,08,05,12,46,16.60
2015,08,05,12,47,16.50
2015,08,05,12,48,16.60
2015,08,05,12,49,16.50
2015,08,05,12,50,16.50
2015,08,05,12,51,16.40
2015,08,05,12,52,16.40
2015,08,05,12,53,16.40
2015,08,05,12,54,16.40
2015,08,05,12,55,16.40
2015,08,05,12,56,16.50
2015,08,05,12,57,16.50
2015,08,05,12,58,16.50
2015,08,05,12,59,16.60
2015,08,05,13,00,16.60
2015,08,05,13,01,16.60
2015,08,05,13,02,16.60
2015,08,05,13,03,16.60
2015,08,05,13,04,16.70
2015,08,05,13,05,16.70
2015,08,05,13,06,16.70
2015,08,05,13,07,16.60
2015,08,05,13,08,16.60
2015,08,05,13,09,16.60
2015,08,05,13,10,16.60
2015,08,05,13,11,16.60
2015,08,05,13,12,16.50
2015,08,05,13,13,16.50
2015,08,05,13,14,16.50
2015,08,05,13,15,16.50
2015,08,05,13,16,16.50
2015,08,05,13,17,16.50
2015,08,05,13,18,16.40
2015,08,05,13,19,16.50
2015,08,05,13,20,16.50
2015,08,05,13,21,16.50
2015,08,05,13,22,16.50
2015,08,05,13,23,16.60
2015,08,05,13,24,16.50
2015,08,05,13,25,16.50
2015,08,05,13,26,16.50
2015,08,05,13,27,16.50
2015,08,05,13,28,16.50
2015,08,05,13,29,16.60
2015,08,05,13,30,16.60
2015,08,05,13,31,16.60
2015,08,05,13,32,16.60
2015,08,05,13,33,16.60
2015,08,05,13,34,16.60
2015,08,05,13,35,16.60
2015,08,05,13,36,16.60
2015,08,05,13,37,16.60
2015,08,05,13,38,16.60
2015,08,05,13,39,16.60
2015,08,05,13,40,16.60
2015,08,05,13,41,16.60
2015,08,05,13,42,16.60
2015,08,05,13,43,16.60
2015,08,05,13,44,16.60
2015,08,05,13,45,16.60
2015,08,05,13,46,16.60
2015,08,05,13,47,16.60
2015,08,05,13,48,16.60
2015,08,05,13,49,16.60
2015,08,05,13,50,16.60
2015,08,05,13,51,16.60
2015,08,05,13,52,16.60
2015,08,05,13,53,16.70
2015,08,05,13,54,16.70
2015,08,05,13,55,16.80
2015,08,05,13,56,16.80
2015,08,05,13,57,16.80
2015,08,05,13,58,16.90
2015,08,05,13,59,16.90
2015,08,05,14,00,17.00
2015,08,05,14,01,17.10
2015,08,05,14,02,17.10
2015,08,05,14,03,17.10
2015,08,05,14,04,17.20
2015,08,05,14,05,17.00
2015,08,05,14,06,16.90
2015,08,05,14,07,16.80
2015,08,05,14,08,16.70
2015,08,05,14,09,16.60
2015,08,05,14,10,16.60
2015,08,05,14,11,16.60
2015,08,05,14,12,16.60
2015,08,05,14,13,16.60
2015,08,05,14,14,16.70
2015,08,05,14,15,16.80
2015,08,05,14,16,16.90
2015,08,05,14,17,16.90
2015,08,05,14,18,16.90
2015,08,05,14,19,16.80
2015,08,05,14,20,16.80
2015,08,05,14,21,16.90
2015,08,05,14,22,17.00
2015,08,05,14,23,16.90
2015,08,05,14,24,16.90
2015,08,05,14,25,16.90
2015,08,05,14,26,16.90
2015,08,05,14,27,16.80
2015,08,05,14,28,16.80
2015,08,05,14,29,16.70
2015,08,05,14,30,16.70
2015,08,05,14,31,16.70
2015,08,05,14,32,16.70
2015,08,05,14,33,16.70
2015,08,05,14,34,16.70
2015,08,05,14,35,16.70
2015,08,05,14,36,16.70
2015,08,05,14,37,16.80
2015,08,05,14,38,16.80
2015,08,05,14,39,16.70
2015,08,05,14,40,16.70
2015,08,05,14,41,16.70
2015,08,05,14,42,16.70
2015,08,05,14,43,16.70
2015,08,05,14,44,16.80
2015,08,05,14,45,16.80
2015,08,05,14,46,16.80
2015,08,05,14,47,16.80
2015,08,05,14,48,16.90
2015,08,05,14,49,16.90
2015,08,05,14,50,16.90
2015,08,05,14,51,16.90
2015,08,05,14,52,16.90
2015,08,05,14,53,16.90
2015,08,05,14,54,16.90
2015,08,05,14,55,16.90
2015,08,05,14,56,16.90
2015,08,05,14,57,16.90
2015,08,05,14,58,16.90
2015,08,05,14,59,16.90
2015,08,05,15,00,16.90
2015,08,05,15,01,16.90
2015,08,05,15,02,16.90
2015,08,05,15,03,16.80
2015,08,05,15,04,16.70
2015,08,05,15,05,16.70
2015,08,05,15,06,16.60
2015,08,05,15,07,16.60
2015,08,05,15,08,16.60
2015,08,05,15,09,16.60
2015,08,05,15,10,16.60
2015,08,05,15,11,16.70
2015,08,05,15,12,16.70
2015,08,05,15,13,16.80
2015,08,05,15,14,16.90
2015,08,05,15,15,17.00
2015,08,05,15,16,17.00
2015,08,05,15,17,17.00
2015,08,05,15,18,16.90
2015,08,05,15,19,16.90
2015,08,05,15,20,17.10
2015,08,05,15,21,17.20
2015,08,05,15,22,17.10
2015,08,05,15,23,17.10
2015,08,05,15,24,17.10
2015,08,05,15,25,17.10
2015,08,05,15,26,17.10
2015,08,05,15,27,17.10
2015,08,05,15,28,17.10
2015,08,05,15,29,17.20
2015,08,05,15,30,17.10
2015,08,05,15,31,17.00
2015,08,05,15,32,17.00
2015,08,05,15,33,16.90
2015,08,05,15,34,16.80
2015,08,05,15,35,16.80
2015,08,05,15,36,16.80
2015,08,05,15,37,16.80
2015,08,05,15,38,16.80
2015,08,05,15,39,16.80
2015,08,05,15,40,16.80
2015,08,05,15,41,16.80
2015,08,05,15,42,16.80
2015,08,05,15,43,16.80
2015,08,05,15,44,16.80
2015,08,05,15,45,16.90
2015,08,05,15,46,17.00
2015,08,05,15,47,17.00
2015,08,05,15,48,17.00
2015,08,05,15,49,17.10
2015,08,05,15,50,17.20
2015,08,05,15,51,17.30
2015,08,05,15,52,17.40
2015,08,05,15,53,17.40
2015,08,05,15,54,17.40
2015,08,05,15,55,17.40
2015,08,05,15,56,17.40
2015,08,05,15,57,17.30
2015,08,05,15,58,17.30
2015,08,05,15,59,17.30
2015,08,05,16,00,17.20
2015,08,05,16,01,17.20
2015,08,05,16,02,17.10
2015,08,05,16,03,17.10
2015,08,05,16,04,17.00
2015,08,05,16,05,17.00
2015,08,05,16,06,16.90
2015,08,05,16,07,16.80
2015,08,05,16,08,16.80
2015,08,05,16,09,16.80
2015,08,05,16,10,16.80
2015,08,05,16,11,16.80
2015,08,05,16,12,16.80
2015,08,05,16,13,16.80
2015,08,05,16,14,16.80
2015,08,05,16,15,16.80
2015,08,05,16,16,16.80
2015,08,05,16,17,16.80
2015,08,05,16,18,16.80
2015,08,05,16,19,16.80
2015,08,05,16,20,16.80
2015,08,05,16,21,16.90
2015,08,05,16,22,16.90
2015,08,05,16,23,16.90
2015,08,05,16,24,16.90
2015,08,05,16,25,16.90
2015,08,05,16,26,16.90
2015,08,05,16,27,16.90
2015,08,05,16,28,16.90
2015,08,05,16,29,16.90
2015,08,05,16,30,16.80
2015,08,05,16,31,16.80
2015,08,05,16,32,16.80
2015,08,05,16,33,16.80
2015,08,05,16,34,16.90
2015,08,05,16,35,16.90
2015,08,05,16,36,17.00
2015,08,05,16,37,17.10
2015,08,05,16,38,17.00
2015,08,05,16,39,17.00
2015,08,05,16,40,17.00
2015,08,05,16,41,17.10
2015,08,05,16,42,17.10
2015,08,05,16,43,17.10
2015,08,05,16,44,17.10
2015,08,05,16,45,17.10
2015,08,05,16,46,17.10
2015,08,05,16,47,17.20
2015,08,05,16,48,17.20
2015,08,05,16,49,17.30
2015,08,05,16,50,17.30
2015,08,05,16,51,17.40
2015,08,05,16,52,17.40
2015,08,05,16,53,17.40
2015,08,05,16,54,17.50
2015,08,05,16,55,17.60
2015,08,05,16,56,17.60
2015,08,05,16,57,17.60
2015,08,05,16,58,17.70
2015,08,05,16,59,17.90
2015,08,05,17,00,18.10
2015,08,05,17,01,18.30
2015,08,05,17,02,18.50
2015,08,05,17,03,18.70
2015,08,05,17,04,18.90
2015,08,05,17,05,19.00
2015,08,05,17,06,19.20
2015,08,05,17,07,19.30
2015,08,05,17,08,19.40
2015,08,05,17,09,19.40
2015,08,05,17,10,19.50
2015,08,05,17,11,19.60
2015,08,05,17,12,19.60
2015,08,05,17,13,19.60
2015,08,05,17,14,19.60
2015,08,05,17,15,19.50
2015,08,05,17,16,19.50
2015,08,05,17,17,19.40
2015,08,05,17,18,19.40
2015,08,05,17,19,19.40